Location: Argonnex
(45.9500°N, 6.1333°E)
Time: 17:14:13
(UTC+00:00)

ATLAS CENTAUR R/B - Pass Details

Date: 28 January 2023
Orbit: 449 x 650 km, 64.7° (Epoch: 28 March)

Event Time Altitude Azimuth Distance (km) Brightness Sun altitude
Rises 19:12:21 0° 243° (WSW) 2,988 6.0 -27.4°
Reaches altitude 10° 19:14:54 10° 253° (WSW) 2,068 5.1 -27.8°
Maximum altitude 19:19:08 32° 317° (NW) 1,103 3.1 -28.6°
Enters shadow 19:19:47 31° 334° (NNW) 1,131 3.1 -28.7°
